| time (UTC) | temp F | wind direction | speed MPH | gust MPH | rain 1hr in | rain 24hr in | rain mn in | humidity % | barometer mb |
| 20260508030702 | 62 | 7 | 1.0 | 2.0 | 0.00 | 0.00 | 0.00 | 89 | 1015.8 |
| 20260508030201 | 62 | 325 | 1.0 | 2.0 | 0.00 | 0.00 | 0.00 | 89 | 1015.9 |
| 20260508025701 | 62 | 0 | 0.0 | 0.0 | 0.00 | 0.00 | 0.00 | 88 | 1015.3 |
| 20260508025202 | 62 | 63 | 1.0 | 2.0 | 0.00 | 0.00 | 0.00 | 88 | 1015.4 |
| 20260508024701 | 62 | 0 | 0.0 | 0.0 | 0.00 | 0.00 | 0.00 | 87 | 1015.7 |
| 20260508024201 | 62 | 0 | 0.0 | 0.0 | 0.00 | 0.00 | 0.00 | 87 | 1015.4 |
| 20260508023702 | 63 | 0 | 0.0 | 0.0 | 0.00 | 0.00 | 0.00 | 86 | 1015.3 |
| 20260508023200 | 63 | 0 | 0.0 | 0.0 | 0.00 | 0.00 | 0.00 | 86 | 1015.4 |
| 20260508022703 | 63 | 262 | 1.0 | 2.0 | 0.00 | 0.00 | 0.00 | 85 | 1015.5 |
| 20260508022201 | 63 | 0 | 0.0 | 0.0 | 0.00 | 0.00 | 0.00 | 85 | 1015.2 |
| 20260508021700 | 63 | 97 | 3.0 | 4.0 | 0.00 | 0.00 | 0.00 | 86 | 1014.8 |
| 20260508021201 | 63 | 35 | 2.0 | 3.0 | 0.00 | 0.00 | 0.00 | 85 | 1015.1 |
| 20260508020701 | 63 | 52 | 2.0 | 2.0 | 0.00 | 0.00 | 0.00 | 84 | 1015.3 |
| 20260508020202 | 63 | 41 | 2.0 | 2.0 | 0.00 | 0.00 | 0.00 | 84 | 1015.6 |
| 20260508015700 | 63 | 114 | 1.0 | 2.0 | 0.00 | 0.00 | 0.00 | 84 | 1015.8 |
| 20260508015201 | 64 | 0 | 0.0 | 0.0 | 0.00 | 0.00 | 0.00 | 84 | 1016.0 |
| 20260508014701 | 64 | 222 | 2.0 | 2.0 | 0.00 | 0.00 | 0.00 | 83 | 1016.0 |
| 20260508014200 | 64 | 0 | 0.0 | 0.0 | 0.00 | 0.00 | 0.00 | 82 | 1015.8 |
| 20260508013701 | 64 | 323 | 0.0 | 1.0 | 0.00 | 0.00 | 0.00 | 82 | 1015.6 |
| 20260508013201 | 64 | 298 | 3.0 | 4.0 | 0.00 | 0.00 | 0.00 | 83 | 1015.5 |
| 20260508012700 | 63 | 8 | 2.0 | 3.0 | 0.00 | 0.00 | 0.00 | 84 | 1015.2 |
| 20260508012200 | 63 | 307 | 4.0 | 5.0 | 0.00 | 0.00 | 0.00 | 86 | 1015.2 |
| 20260508011704 | 63 | 52 | 3.0 | 6.0 | 0.00 | 0.00 | 0.00 | 86 | 1014.0 |
| 20260508011202 | 64 | 157 | 4.0 | 4.0 | 0.00 | 0.00 | 0.00 | 86 | 1014.2 |
| 20260508010700 | 64 | 134 | 1.0 | 2.0 | 0.00 | 0.00 | 0.00 | 86 | 1014.3 |
| 20260508010202 | 64 | 97 | 3.0 | 3.0 | 0.00 | 0.00 | 0.00 | 86 | 1014.4 |
| 20260508005701 | 64 | 55 | 2.0 | 2.0 | 0.00 | 0.00 | 0.00 | 86 | 1014.9 |
| 20260508005203 | 64 | 152 | 0.0 | 0.0 | 0.00 | 0.00 | 0.00 | 85 | 1015.3 |
| 20260508004702 | 64 | 241 | 1.0 | 1.0 | 0.00 | 0.00 | 0.00 | 85 | 1015.2 |
| 20260508004201 | 64 | 0 | 0.0 | 0.0 | 0.00 | 0.00 | 0.00 | 84 | 1015.1 |
| 20260508003702 | 64 | 358 | 1.0 | 2.0 | 0.00 | 0.00 | 0.00 | 84 | 1014.9 |
| 20260508003201 | 64 | 109 | 1.0 | 3.0 | 0.00 | 0.00 | 0.00 | 84 | 1014.7 |
| 20260508002703 | 64 | 33 | 1.0 | 2.0 | 0.00 | 0.00 | 0.00 | 84 | 1014.9 |
| 20260508002201 | 65 | 2 | 1.0 | 2.0 | 0.00 | 0.00 | 0.00 | 83 | 1014.9 |
| 20260508001701 | 65 | 24 | 1.0 | 2.0 | 0.00 | 0.00 | 0.00 | 82 | 1014.8 |
| 20260508001203 | 65 | 95 | 0.0 | 2.0 | 0.00 | 0.00 | 0.00 | 82 | 1015.0 |
| 20260508000701 | 65 | 0 | 0.0 | 0.0 | 0.00 | 0.00 | 0.00 | 81 | 1015.3 |
| 20260508000204 | 65 | 64 | 0.0 | 1.0 | 0.00 | 0.00 | 0.00 | 80 | 1015.4 |
| 20260507235701 | 65 | 79 | 2.0 | 4.0 | 0.00 | 0.00 | 0.00 | 80 | 1015.2 |
| 20260507235200 | 65 | 34 | 1.0 | 2.0 | 0.00 | 0.00 | 0.00 | 80 | 1015.6 |
| 20260507234700 | 65 | 294 | 0.0 | 0.0 | 0.00 | 0.00 | 0.00 | 79 | 1015.4 |
| 20260507234202 | 66 | 307 | 1.0 | 4.0 | 0.00 | 0.00 | 0.00 | 80 | 1015.7 |
| 20260507233701 | 66 | 314 | 3.0 | 5.0 | 0.00 | 0.00 | 0.00 | 77 | 1015.1 |
| 20260507233200 | 66 | 112 | 1.0 | 3.0 | 0.00 | 0.00 | 0.00 | 78 | 1014.5 |
| 20260507232702 | 66 | 115 | 3.0 | 4.0 | 0.00 | 0.00 | 0.00 | 77 | 1015.1 |
| 20260507232203 | 65 | 352 | 2.0 | 4.0 | 0.00 | 0.00 | 0.00 | 79 | 1015.7 |
| 20260507231701 | 65 | 224 | 2.0 | 3.0 | 0.00 | 0.00 | 0.00 | 80 | 1015.5 |
| 20260507231200 | 66 | 39 | 3.0 | 3.0 | 0.00 | 0.00 | 0.00 | 80 | 1015.1 |
| 20260507230702 | 66 | 42 | 1.0 | 2.0 | 0.00 | 0.00 | 0.00 | 79 | 1015.4 |
| 20260507230201 | 66 | 286 | 2.0 | 3.0 | 0.00 | 0.00 | 0.00 | 79 | 1016.0 |
| 20260507225701 | 66 | 335 | 1.0 | 2.0 | 0.00 | 0.00 | 0.00 | 77 | 1015.8 |
| 20260507225201 | 66 | 99 | 1.0 | 2.0 | 0.00 | 0.00 | 0.00 | 76 | 1015.3 |
| 20260507224700 | 66 | 3 | 2.0 | 3.0 | 0.00 | 0.00 | 0.00 | 76 | 1015.5 |
| 20260507224200 | 66 | 0 | 0.0 | 0.0 | 0.00 | 0.00 | 0.00 | 74 | 1015.5 |
| 20260507223700 | 66 | 128 | 2.0 | 3.0 | 0.00 | 0.00 | 0.00 | 74 | 1015.3 |
| 20260507223201 | 66 | 44 | 1.0 | 2.0 | 0.00 | 0.00 | 0.00 | 74 | 1015.7 |
| 20260507222701 | 66 | 335 | 1.0 | 3.0 | 0.00 | 0.00 | 0.00 | 75 | 1016.0 |
| 20260507222200 | 66 | 166 | 4.0 | 7.0 | 0.00 | 0.00 | 0.00 | 74 | 1015.2 |
| 20260507221702 | 67 | 351 | 2.0 | 3.0 | 0.00 | 0.00 | 0.00 | 74 | 1015.4 |
| 20260507221201 | 67 | 18 | 3.0 | 4.0 | 0.00 | 0.00 | 0.00 | 72 | 1015.1 |
| 20260507220701 | 67 | 131 | 3.0 | 6.0 | 0.00 | 0.00 | 0.00 | 70 | 1015.0 |
| 20260507220203 | 67 | 329 | 2.0 | 5.0 | 0.00 | 0.00 | 0.00 | 70 | 1015.8 |
| 20260507215701 | 68 | 299 | 5.0 | 7.0 | 0.00 | 0.00 | 0.00 | 71 | 1016.3 |
| 20260507215201 | 68 | 72 | 3.0 | 4.0 | 0.00 | 0.00 | 0.00 | 68 | 1015.3 |
| 20260507214701 | 68 | 62 | 2.0 | 4.0 | 0.00 | 0.00 | 0.00 | 68 | 1015.1 |
| 20260507214201 | 68 | 62 | 3.0 | 5.0 | 0.00 | 0.00 | 0.00 | 66 | 1015.4 |
| 20260507213701 | 68 | 60 | 3.0 | 6.0 | 0.00 | 0.00 | 0.00 | 68 | 1015.5 |
| 20260507213201 | 68 | 45 | 1.0 | 3.0 | 0.00 | 0.00 | 0.00 | 67 | 1015.5 |
| 20260507212702 | 68 | 81 | 2.0 | 4.0 | 0.00 | 0.00 | 0.00 | 66 | 1015.1 |
| 20260507212202 | 68 | 93 | 6.0 | 9.0 | 0.00 | 0.00 | 0.00 | 66 | 1015.3 |
| 20260507211701 | 68 | 29 | 5.0 | 9.0 | 0.00 | 0.00 | 0.00 | 66 | 1015.7 |
| 20260507211201 | 68 | 33 | 5.0 | 6.0 | 0.00 | 0.00 | 0.00 | 66 | 1015.7 |
| 20260507210702 | 68 | 18 | 2.0 | 4.0 | 0.00 | 0.00 | 0.00 | 66 | 1015.8 |
| 20260507210202 | 68 | 52 | 4.0 | 5.0 | 0.00 | 0.00 | 0.00 | 66 | 1015.9 |
| 20260507205703 | 68 | 71 | 1.0 | 2.0 | 0.00 | 0.00 | 0.00 | 67 | 1016.0 |
| 20260507205201 | 69 | 351 | 3.0 | 6.0 | 0.00 | 0.00 | 0.00 | 66 | 1016.1 |
| 20260507204703 | 69 | 358 | 1.0 | 3.0 | 0.00 | 0.00 | 0.00 | 68 | 1016.2 |
| 20260507204203 | 69 | 63 | 2.0 | 4.0 | 0.00 | 0.00 | 0.00 | 67 | 1016.2 |
| 20260507203702 | 69 | 52 | 1.0 | 3.0 | 0.00 | 0.00 | 0.00 | 67 | 1016.1 |
| 20260507203203 | 69 | 59 | 3.0 | 5.0 | 0.00 | 0.00 | 0.00 | 65 | 1016.2 |
| 20260507202704 | 69 | 33 | 2.0 | 3.0 | 0.00 | 0.00 | 0.00 | 65 | 1016.6 |
| 20260507202201 | 69 | 62 | 1.0 | 3.0 | 0.00 | 0.00 | 0.00 | 65 | 1016.4 |
| 20260507201702 | 70 | 67 | 3.0 | 5.0 | 0.00 | 0.00 | 0.00 | 64 | 1016.3 |
| 20260507201202 | 70 | 54 | 3.0 | 4.0 | 0.00 | 0.00 | 0.00 | 66 | 1016.3 |
| 20260507200701 | 70 | 93 | 3.0 | 4.0 | 0.00 | 0.00 | 0.00 | 63 | 1016.4 |
| 20260507200201 | 70 | 10 | 3.0 | 4.0 | 0.00 | 0.00 | 0.00 | 62 | 1016.6 |
| 20260507195702 | 70 | 71 | 4.0 | 6.0 | 0.00 | 0.00 | 0.00 | 61 | 1016.3 |
| 20260507195201 | 70 | 50 | 3.0 | 4.0 | 0.00 | 0.00 | 0.00 | 63 | 1016.8 |
| 20260507194700 | 70 | 51 | 4.0 | 4.0 | 0.00 | 0.00 | 0.00 | 65 | 1016.8 |
| 20260507194203 | 69 | 45 | 1.0 | 4.0 | 0.00 | 0.00 | 0.00 | 62 | 1017.0 |
| 20260507193701 | 69 | 70 | 4.0 | 6.0 | 0.00 | 0.00 | 0.00 | 63 | 1016.9 |
| 20260507193201 | 69 | 26 | 3.0 | 5.0 | 0.00 | 0.00 | 0.00 | 65 | 1016.8 |
| 20260507192701 | 69 | 61 | 3.0 | 5.0 | 0.00 | 0.00 | 0.00 | 63 | 1016.6 |
| 20260507192203 | 69 | 101 | 3.0 | 8.0 | 0.00 | 0.00 | 0.00 | 61 | 1016.6 |
| 20260507191701 | 69 | 89 | 6.0 | 8.0 | 0.00 | 0.00 | 0.00 | 61 | 1016.7 |
| 20260507191201 | 69 | 96 | 2.0 | 4.0 | 0.00 | 0.00 | 0.00 | 63 | 1016.6 |
| 20260507190701 | 70 | 82 | 6.0 | 9.0 | 0.00 | 0.00 | 0.00 | 63 | 1016.8 |
| 20260507190201 | 70 | 86 | 4.0 | 4.0 | 0.00 | 0.00 | 0.00 | 62 | 1016.7 |
| 20260507185702 | 71 | 77 | 7.0 | 9.0 | 0.00 | 0.00 | 0.00 | 60 | 1016.8 |
| 20260507185200 | 70 | 0 | 3.0 | 6.0 | 0.00 | 0.00 | 0.00 | 62 | 1017.0 |
| 20260507184702 | 70 | 94 | 2.0 | 5.0 | 0.00 | 0.00 | 0.00 | 62 | 1016.6 |
| 20260507184202 | 70 | 68 | 8.0 | 10.0 | 0.00 | 0.00 | 0.00 | 61 | 1016.7 |
| 20260507183702 | 70 | 22 | 3.0 | 5.0 | 0.00 | 0.00 | 0.00 | 61 | 1017.1 |
| 20260507183202 | 70 | 97 | 2.0 | 5.0 | 0.00 | 0.00 | 0.00 | 62 | 1017.0 |
| 20260507182703 | 69 | 0 | 4.0 | 7.0 | 0.00 | 0.00 | 0.00 | 63 | 1016.7 |
| 20260507182202 | 69 | 72 | 7.0 | 12.0 | 0.00 | 0.00 | 0.00 | 62 | 1016.8 |
| 20260507181701 | 69 | 74 | 4.0 | 9.0 | 0.00 | 0.00 | 0.00 | 61 | 1017.0 |
| 20260507181202 | 68 | 87 | 6.0 | 11.0 | 0.00 | 0.00 | 0.00 | 64 | 1017.2 |
| 20260507180702 | 67 | 7 | 5.0 | 9.0 | 0.00 | 0.00 | 0.00 | 65 | 1017.3 |
| 20260507180200 | 67 | 48 | 5.0 | 7.0 | 0.00 | 0.00 | 0.00 | 66 | 1017.1 |
| 20260507175702 | 66 | 27 | 5.0 | 9.0 | 0.00 | 0.00 | 0.00 | 67 | 1017.1 |
| 20260507175203 | 66 | 80 | 8.0 | 11.0 | 0.00 | 0.00 | 0.00 | 68 | 1016.6 |
| 20260507174701 | 65 | 84 | 6.0 | 8.0 | 0.00 | 0.00 | 0.00 | 69 | 1016.8 |
| 20260507174202 | 65 | 11 | 4.0 | 6.0 | 0.00 | 0.00 | 0.00 | 68 | 1016.9 |
| 20260507173702 | 66 | 22 | 6.0 | 9.0 | 0.00 | 0.00 | 0.00 | 67 | 1017.1 |
| 20260507173204 | 66 | 68 | 3.0 | 5.0 | 0.00 | 0.00 | 0.00 | 70 | 1017.4 |
| 20260507172702 | 66 | 35 | 7.0 | 10.0 | 0.00 | 0.00 | 0.00 | 69 | 1017.1 |
| 20260507172203 | 65 | 37 | 3.0 | 5.0 | 0.00 | 0.00 | 0.00 | 69 | 1017.3 |
| 20260507171702 | 66 | 65 | 8.0 | 11.0 | 0.00 | 0.00 | 0.00 | 68 | 1017.2 |
| 20260507171200 | 65 | 16 | 4.0 | 7.0 | 0.00 | 0.00 | 0.00 | 70 | 1017.5 |
| 20260507170703 | 65 | 1 | 4.0 | 8.0 | 0.00 | 0.00 | 0.00 | 70 | 1017.1 |
| 20260507170203 | 65 | 20 | 4.0 | 8.0 | 0.00 | 0.00 | 0.00 | 70 | 1017.3 |
| 20260507165702 | 65 | 78 | 6.0 | 9.0 | 0.00 | 0.00 | 0.00 | 70 | 1017.3 |
| 20260507165202 | 65 | 78 | 6.0 | 7.0 | 0.00 | 0.00 | 0.00 | 69 | 1017.4 |
| 20260507164702 | 65 | 55 | 4.0 | 7.0 | 0.00 | 0.00 | 0.00 | 69 | 1017.7 |
| 20260507164202 | 64 | 63 | 3.0 | 5.0 | 0.00 | 0.00 | 0.00 | 70 | 1017.8 |
| 20260507163702 | 64 | 31 | 6.0 | 9.0 | 0.00 | 0.00 | 0.00 | 70 | 1017.7 |
| 20260507163202 | 64 | 350 | 5.0 | 11.0 | 0.00 | 0.00 | 0.00 | 70 | 1017.7 |
| 20260507162701 | 63 | 12 | 7.0 | 12.0 | 0.00 | 0.00 | 0.00 | 70 | 1017.7 |
| 20260507162203 | 64 | 303 | 4.0 | 7.0 | 0.00 | 0.00 | 0.00 | 71 | 1018.0 |
| 20260507161702 | 64 | 17 | 6.0 | 9.0 | 0.00 | 0.00 | 0.00 | 70 | 1018.2 |
| 20260507161203 | 64 | 359 | 2.0 | 5.0 | 0.00 | 0.00 | 0.00 | 73 | 1018.2 |
| 20260507160703 | 63 | 44 | 4.0 | 6.0 | 0.00 | 0.00 | 0.00 | 74 | 1018.3 |
| 20260507160202 | 63 | 329 | 5.0 | 9.0 | 0.00 | 0.00 | 0.00 | 72 | 1018.2 |
| 20260507155703 | 62 | 317 | 4.0 | 6.0 | 0.00 | 0.00 | 0.00 | 75 | 1018.4 |
| 20260507155203 | 62 | 16 | 5.0 | 6.0 | 0.00 | 0.00 | 0.00 | 76 | 1018.3 |
| 20260507154701 | 61 | 341 | 3.0 | 11.0 | 0.00 | 0.00 | 0.00 | 76 | 1017.8 |
| 20260507154202 | 61 | 46 | 4.0 | 6.0 | 0.00 | 0.00 | 0.00 | 75 | 1018.0 |
| 20260507153702 | 61 | 33 | 3.0 | 5.0 | 0.00 | 0.00 | 0.00 | 76 | 1018.0 |
| 20260507153200 | 60 | 84 | 6.0 | 11.0 | 0.00 | 0.00 | 0.00 | 76 | 1018.2 |
| 20260507152703 | 60 | 41 | 5.0 | 9.0 | 0.00 | 0.00 | 0.00 | 78 | 1018.3 |
| 20260507152200 | 59 | 3 | 6.0 | 7.0 | 0.00 | 0.00 | 0.00 | 77 | 1018.3 |
| 20260507151700 | 59 | 40 | 6.0 | 8.0 | 0.00 | 0.00 | 0.00 | 80 | 1018.1 |
| 20260507151201 | 58 | 37 | 6.0 | 9.0 | 0.00 | 0.00 | 0.00 | 79 | 1018.3 |
| 20260507150702 | 58 | 37 | 6.0 | 8.0 | 0.00 | 0.00 | 0.00 | 78 | 1017.8 |
| 20260507150203 | 58 | 24 | 6.0 | 9.0 | 0.00 | 0.00 | 0.00 | 79 | 1018.3 |
| 20260507145700 | 58 | 44 | 6.0 | 9.0 | 0.00 | 0.00 | 0.00 | 79 | 1018.2 |
| 20260507145201 | 57 | 12 | 4.0 | 5.0 | 0.00 | 0.00 | 0.00 | 80 | 1018.4 |
| 20260507144700 | 58 | 24 | 5.0 | 6.0 | 0.00 | 0.00 | 0.00 | 78 | 1018.2 |
| 20260507144201 | 58 | 20 | 4.0 | 5.0 | 0.00 | 0.00 | 0.00 | 79 | 1018.1 |
| 20260507143700 | 57 | 357 | 2.0 | 4.0 | 0.00 | 0.00 | 0.00 | 82 | 1018.2 |
| 20260507143200 | 57 | 54 | 6.0 | 7.0 | 0.00 | 0.00 | 0.00 | 80 | 1018.2 |
| 20260507142701 | 57 | 26 | 4.0 | 7.0 | 0.00 | 0.00 | 0.00 | 79 | 1018.3 |
| 20260507142200 | 57 | 26 | 6.0 | 10.0 | 0.00 | 0.00 | 0.00 | 79 | 1018.2 |
| 20260507141700 | 57 | 0 | 1.0 | 2.0 | 0.00 | 0.00 | 0.00 | 82 | 1018.2 |
| 20260507141201 | 56 | 77 | 2.0 | 2.0 | 0.00 | 0.00 | 0.00 | 82 | 1018.2 |
| 20260507140700 | 56 | 41 | 6.0 | 8.0 | 0.00 | 0.00 | 0.00 | 81 | 1018.4 |
| 20260507140201 | 56 | 327 | 2.0 | 4.0 | 0.00 | 0.00 | 0.00 | 83 | 1018.6 |
| 20260507135702 | 56 | 328 | 4.0 | 8.0 | 0.00 | 0.00 | 0.00 | 82 | 1018.5 |
| 20260507135200 | 56 | 37 | 1.0 | 4.0 | 0.00 | 0.00 | 0.00 | 83 | 1018.1 |
| 20260507134700 | 56 | 8 | 3.0 | 4.0 | 0.00 | 0.00 | 0.00 | 83 | 1018.0 |
| 20260507134201 | 56 | 353 | 5.0 | 7.0 | 0.00 | 0.00 | 0.00 | 83 | 1017.9 |
| 20260507133703 | 56 | 356 | 4.0 | 6.0 | 0.00 | 0.00 | 0.00 | 83 | 1017.8 |
| 20260507133201 | 56 | 30 | 6.0 | 8.0 | 0.00 | 0.00 | 0.00 | 83 | 1017.8 |
| 20260507132700 | 56 | 10 | 1.0 | 2.0 | 0.00 | 0.00 | 0.00 | 85 | 1017.7 |
| 20260507132202 | 56 | 65 | 2.0 | 3.0 | 0.00 | 0.00 | 0.00 | 84 | 1017.5 |
| 20260507131701 | 55 | 25 | 2.0 | 4.0 | 0.00 | 0.00 | 0.00 | 84 | 1017.9 |
| 20260507131201 | 55 | 331 | 4.0 | 6.0 | 0.00 | 0.00 | 0.00 | 84 | 1017.9 |
| 20260507130700 | 55 | 67 | 4.0 | 6.0 | 0.00 | 0.00 | 0.00 | 84 | 1017.6 |
| 20260507130200 | 55 | 88 | 2.0 | 3.0 | 0.00 | 0.00 | 0.00 | 84 | 1017.7 |
| 20260507125701 | 55 | 88 | 2.0 | 4.0 | 0.00 | 0.00 | 0.00 | 85 | 1017.7 |
| 20260507125200 | 55 | 87 | 4.0 | 4.0 | 0.00 | 0.00 | 0.00 | 86 | 1017.8 |
| 20260507124700 | 55 | 90 | 2.0 | 3.0 | 0.00 | 0.00 | 0.00 | 87 | 1017.6 |
| 20260507124200 | 55 | 90 | 1.0 | 1.0 | 0.00 | 0.00 | 0.00 | 89 | 1017.6 |
| 20260507123700 | 55 | 89 | 2.0 | 3.0 | 0.00 | 0.00 | 0.00 | 89 | 1017.5 |
| 20260507123201 | 55 | 90 | 4.0 | 5.0 | 0.00 | 0.00 | 0.00 | 89 | 1017.4 |
| 20260507122701 | 55 | 90 | 4.0 | 4.0 | 0.00 | 0.00 | 0.00 | 89 | 1017.5 |
| 20260507122200 | 55 | 91 | 2.0 | 3.0 | 0.00 | 0.00 | 0.00 | 90 | 1017.5 |
| 20260507121703 | 55 | 92 | 3.0 | 3.0 | 0.00 | 0.00 | 0.00 | 90 | 1017.1 |
| 20260507120721 | 55 | 90 | 3.0 | 3.0 | 0.00 | 0.00 | 0.00 | 90 | 1016.8 |
| 20260507120200 | 55 | 91 | 2.0 | 2.0 | 0.00 | 0.00 | 0.00 | 90 | 1016.7 |
| 20260507115700 | 55 | 91 | 3.0 | 4.0 | 0.00 | 0.00 | 0.00 | 90 | 1016.7 |
| 20260507115203 | 54 | 90 | 3.0 | 4.0 | 0.00 | 0.00 | 0.00 | 90 | 1016.6 |
| 20260507114702 | 54 | 91 | 4.0 | 4.0 | 0.00 | 0.00 | 0.00 | 91 | 1016.6 |
| 20260507114201 | 54 | 89 | 3.0 | 3.0 | 0.00 | 0.00 | 0.00 | 91 | 1016.5 |
| 20260507113701 | 54 | 90 | 3.0 | 4.0 | 0.00 | 0.00 | 0.00 | 91 | 1016.6 |
| 20260507113200 | 54 | 90 | 3.0 | 4.0 | 0.00 | 0.00 | 0.00 | 91 | 1016.6 |
| 20260507112700 | 54 | 90 | 3.0 | 4.0 | 0.00 | 0.00 | 0.00 | 91 | 1016.5 |
| 20260507112200 | 54 | 89 | 4.0 | 4.0 | 0.00 | 0.00 | 0.00 | 90 | 1016.3 |
| 20260507111700 | 54 | 90 | 4.0 | 4.0 | 0.00 | 0.00 | 0.00 | 90 | 1016.3 |
| 20260507111200 | 54 | 90 | 3.0 | 4.0 | 0.00 | 0.00 | 0.00 | 90 | 1016.3 |
| 20260507110700 | 54 | 91 | 3.0 | 4.0 | 0.00 | 0.00 | 0.00 | 90 | 1016.0 |
| 20260507110200 | 54 | 91 | 3.0 | 4.0 | 0.00 | 0.00 | 0.00 | 90 | 1015.7 |
| 20260507105700 | 54 | 90 | 3.0 | 4.0 | 0.00 | 0.00 | 0.00 | 90 | 1015.8 |
| 20260507105204 | 54 | 90 | 3.0 | 4.0 | 0.00 | 0.00 | 0.00 | 90 | 1015.8 |
| 20260507104701 | 54 | 91 | 2.0 | 3.0 | 0.00 | 0.00 | 0.00 | 90 | 1015.7 |
| 20260507104201 | 54 | 91 | 3.0 | 3.0 | 0.00 | 0.00 | 0.00 | 90 | 1015.5 |
| 20260507103700 | 54 | 91 | 4.0 | 4.0 | 0.00 | 0.00 | 0.00 | 91 | 1015.6 |
| 20260507103200 | 54 | 90 | 4.0 | 4.0 | 0.00 | 0.00 | 0.00 | 91 | 1015.5 |
| 20260507102701 | 54 | 90 | 3.0 | 4.0 | 0.00 | 0.00 | 0.00 | 91 | 1015.5 |
| 20260507102200 | 54 | 90 | 2.0 | 3.0 | 0.00 | 0.00 | 0.00 | 91 | 1015.3 |
| 20260507101701 | 54 | 91 | 3.0 | 4.0 | 0.00 | 0.00 | 0.00 | 92 | 1015.4 |
| 20260507101201 | 54 | 91 | 3.0 | 4.0 | 0.00 | 0.00 | 0.00 | 92 | 1015.2 |
| 20260507100700 | 54 | 90 | 3.0 | 4.0 | 0.00 | 0.00 | 0.00 | 92 | 1015.2 |
| 20260507100202 | 54 | 91 | 3.0 | 4.0 | 0.00 | 0.00 | 0.00 | 92 | 1015.2 |
| 20260507095700 | 54 | 91 | 3.0 | 3.0 | 0.00 | 0.00 | 0.00 | 92 | 1015.1 |
| 20260507095200 | 54 | 90 | 2.0 | 3.0 | 0.00 | 0.00 | 0.00 | 93 | 1015.0 |
| 20260507094702 | 53 | 89 | 4.0 | 5.0 | 0.00 | 0.00 | 0.00 | 93 | 1015.2 |
| 20260507094201 | 53 | 91 | 3.0 | 4.0 | 0.00 | 0.00 | 0.00 | 93 | 1015.5 |
| 20260507093700 | 53 | 90 | 4.0 | 4.0 | 0.00 | 0.00 | 0.00 | 93 | 1015.0 |
| 20260507093201 | 54 | 90 | 3.0 | 3.0 | 0.00 | 0.00 | 0.00 | 93 | 1015.2 |
| 20260507092700 | 54 | 92 | 3.0 | 4.0 | 0.00 | 0.00 | 0.00 | 93 | 1015.3 |
| 20260507092200 | 53 | 90 | 2.0 | 2.0 | 0.00 | 0.00 | 0.00 | 93 | 1015.6 |
| 20260507091700 | 53 | 85 | 2.0 | 3.0 | 0.00 | 0.00 | 0.00 | 93 | 1015.4 |
| 20260507091200 | 53 | 85 | 3.0 | 4.0 | 0.00 | 0.00 | 0.00 | 94 | 1015.5 |
| 20260507090709 | 53 | 90 | 2.0 | 4.0 | 0.00 | 0.00 | 0.00 | 94 | 1015.4 |
| 20260507090201 | 53 | 90 | 5.0 | 7.0 | 0.00 | 0.00 | 0.00 | 94 | 1015.5 |
| 20260507085700 | 54 | 115 | 2.0 | 3.0 | 0.00 | 0.00 | 0.00 | 94 | 1015.8 |
| 20260507085201 | 54 | 89 | 2.0 | 3.0 | 0.00 | 0.00 | 0.00 | 94 | 1015.6 |
| 20260507084701 | 54 | 90 | 3.0 | 4.0 | 0.00 | 0.00 | 0.00 | 94 | 1015.4 |
| 20260507084201 | 54 | 93 | 2.0 | 3.0 | 0.00 | 0.00 | 0.00 | 94 | 1015.3 |
| 20260507083702 | 54 | 91 | 1.0 | 2.0 | 0.00 | 0.00 | 0.00 | 94 | 1015.5 |
| 20260507083201 | 54 | 76 | 2.0 | 3.0 | 0.00 | 0.00 | 0.00 | 94 | 1015.6 |
| 20260507082700 | 54 | 85 | 2.0 | 3.0 | 0.00 | 0.00 | 0.00 | 94 | 1015.4 |
| 20260507082200 | 54 | 65 | 2.0 | 3.0 | 0.00 | 0.00 | 0.00 | 94 | 1015.4 |
| 20260507081700 | 54 | 51 | 3.0 | 4.0 | 0.00 | 0.00 | 0.00 | 94 | 1015.6 |
| 20260507081203 | 54 | 96 | 3.0 | 4.0 | 0.00 | 0.00 | 0.00 | 94 | 1016.0 |
| 20260507080701 | 54 | 111 | 3.0 | 4.0 | 0.00 | 0.00 | 0.00 | 94 | 1015.9 |
| 20260507080200 | 54 | 127 | 4.0 | 8.0 | 0.00 | 0.00 | 0.00 | 94 | 1015.5 |
| 20260507075700 | 54 | 76 | 3.0 | 4.0 | 0.00 | 0.00 | 0.00 | 94 | 1015.4 |
| 20260507075200 | 54 | 335 | 3.0 | 4.0 | 0.00 | 0.00 | 0.00 | 94 | 1015.6 |
| 20260507074700 | 54 | 332 | 2.0 | 3.0 | 0.00 | 0.00 | 0.00 | 94 | 1015.6 |
| 20260507074203 | 54 | 324 | 1.0 | 2.0 | 0.00 | 0.00 | 0.00 | 94 | 1015.5 |
| 20260507073703 | 54 | 321 | 2.0 | 4.0 | 0.00 | 0.00 | 0.00 | 94 | 1015.5 |
| 20260507073200 | 54 | 328 | 4.0 | 6.0 | 0.00 | 0.00 | 0.00 | 94 | 1015.7 |
| 20260507072700 | 55 | 339 | 3.0 | 4.0 | 0.00 | 0.00 | 0.00 | 94 | 1015.9 |
| 20260507072200 | 55 | 327 | 2.0 | 4.0 | 0.00 | 0.00 | 0.00 | 94 | 1015.8 |
| 20260507071701 | 55 | 353 | 5.0 | 7.0 | 0.00 | 0.00 | 0.00 | 94 | 1015.8 |
| 20260507071200 | 55 | 0 | 3.0 | 4.0 | 0.00 | 0.00 | 0.00 | 94 | 1015.8 |
| 20260507070701 | 55 | 34 | 4.0 | 5.0 | 0.00 | 0.00 | 0.00 | 94 | 1015.7 |
| 20260507070200 | 55 | 302 | 2.0 | 3.0 | 0.00 | 0.00 | 0.00 | 94 | 1015.8 |
| 20260507065700 | 55 | 309 | 2.0 | 4.0 | 0.00 | 0.00 | 0.00 | 94 | 1015.6 |
| 20260507065201 | 55 | 39 | 2.0 | 4.0 | 0.00 | 0.00 | 0.00 | 94 | 1015.5 |
| 20260507064702 | 55 | 12 | 4.0 | 6.0 | 0.00 | 0.00 | 0.00 | 94 | 1015.8 |
| 20260507064200 | 56 | 42 | 4.0 | 7.0 | 0.00 | 0.00 | 0.00 | 94 | 1015.7 |
| 20260507063700 | 56 | 51 | 4.0 | 6.0 | 0.00 | 0.00 | 0.00 | 94 | 1015.5 |
| 20260507063200 | 56 | 60 | 5.0 | 13.0 | 0.00 | 0.00 | 0.00 | 93 | 1015.7 |
| 20260507062700 | 56 | 45 | 5.0 | 9.0 | 0.00 | 0.00 | 0.00 | 93 | 1015.7 |
| 20260507062200 | 56 | 42 | 3.0 | 4.0 | 0.00 | 0.00 | 0.00 | 94 | 1015.8 |
| 20260507061700 | 56 | 83 | 3.0 | 4.0 | 0.00 | 0.00 | 0.00 | 94 | 1015.7 |
| 20260507061200 | 56 | 28 | 3.0 | 5.0 | 0.00 | 0.00 | 0.00 | 94 | 1016.0 |
| 20260507060701 | 56 | 38 | 2.0 | 2.0 | 0.00 | 0.00 | 0.00 | 93 | 1015.7 |
| 20260507060202 | 56 | 28 | 3.0 | 4.0 | 0.00 | 0.00 | 0.00 | 93 | 1015.8 |
| 20260507055701 | 56 | 78 | 3.0 | 4.0 | 0.00 | 0.00 | 0.00 | 93 | 1015.7 |
| 20260507055200 | 56 | 27 | 3.0 | 4.0 | 0.00 | 0.00 | 0.00 | 93 | 1015.8 |
| 20260507054700 | 56 | 21 | 4.0 | 7.0 | 0.00 | 0.00 | 0.00 | 93 | 1015.7 |
| 20260507054201 | 57 | 54 | 4.0 | 4.0 | 0.00 | 0.00 | 0.00 | 93 | 1015.5 |
| 20260507053702 | 57 | 236 | 2.0 | 3.0 | 0.00 | 0.00 | 0.00 | 93 | 1015.8 |
| 20260507053200 | 57 | 12 | 2.0 | 3.0 | 0.00 | 0.00 | 0.00 | 93 | 1015.8 |
| 20260507052705 | 57 | 315 | 2.0 | 3.0 | 0.00 | 0.00 | 0.00 | 93 | 1015.4 |
| 20260507052200 | 57 | 315 | 2.0 | 4.0 | 0.00 | 0.00 | 0.00 | 93 | 1015.6 |
| 20260507051701 | 57 | 315 | 2.0 | 3.0 | 0.00 | 0.00 | 0.00 | 93 | 1015.7 |
| 20260507051202 | 57 | 315 | 6.0 | 18.0 | 0.00 | 0.00 | 0.00 | 93 | 1015.6 |
| 20260507050700 | 57 | 314 | 6.0 | 15.0 | 0.00 | 0.00 | 0.00 | 93 | 1015.5 |
| 20260507045200 | 58 | 314 | 3.0 | 4.0 | 0.00 | 0.00 | 0.07 | 93 | 1015.5 |
| 20260507044700 | 58 | 320 | 20.0 | 34.0 | 0.00 | 0.00 | 0.07 | 93 | 1014.7 |
| 20260507044201 | 58 | 321 | 24.0 | 36.0 | 0.00 | 0.00 | 0.07 | 93 | 1014.9 |
| 20260507043701 | 58 | 321 | 24.0 | 34.0 | 0.00 | 0.00 | 0.07 | 93 | 1015.1 |
| 20260507043200 | 58 | 320 | 25.0 | 34.0 | 0.00 | 0.00 | 0.07 | 93 | 1015.4 |
| 20260507040700 | 58 | 314 | 6.0 | 12.0 | 0.00 | 0.00 | 0.07 | 93 | 1015.4 |
| 20260507040200 | 58 | 315 | 7.0 | 13.0 | 0.02 | 0.00 | 0.07 | 93 | 1015.1 |
| 20260507035702 | 58 | 314 | 3.0 | 8.0 | 0.02 | 0.00 | 0.09 | 93 | 1015.1 |
| 20260507034700 | 58 | 315 | 3.0 | 4.0 | 0.09 | 0.00 | 0.09 | 93 | 1014.7 |
| 20260507034201 | 58 | 315 | 2.0 | 2.0 | 0.09 | 0.00 | 0.09 | 93 | 1014.6 |
| 20260507033702 | 58 | 314 | 2.0 | 3.0 | 0.09 | 0.00 | 0.09 | 93 | 1014.4 |
| 20260507033200 | 59 | 314 | 3.0 | 4.0 | 0.11 | 0.00 | 0.09 | 92 | 1014.4 |
| 20260507032707 | 59 | 314 | 4.0 | 5.0 | 0.11 | 0.00 | 0.09 | 92 | 1014.5 |
| 20260507032200 | 59 | 314 | 3.0 | 5.0 | 0.11 | 0.00 | 0.12 | 92 | 1014.6 |
| 20260507031701 | 59 | 317 | 4.0 | 5.0 | 0.11 | 0.00 | 0.12 | 92 | 1014.4 |
| 20260507031201 | 59 | 323 | 4.0 | 5.0 | 0.13 | 0.00 | 0.12 | 91 | 1014.3 |